VEP

导读 | 星芒AI

VEP卫星(Vegetation and Environment Observation Satellite)是一颗用于地球观测的遥感卫星,主要用于监测植被覆盖、生态环境变化及自然灾害。该卫星搭载高分辨率光学传感器,能够提供多光谱和高时间分辨率的影像数据,广泛应用于农业、林业、城市规划和气候变化研究等领域。VEP卫星项目由多个国家联合研发,旨在提升全球环境监测能力,为可持续发展提供科学数据支持。

基本信息
目录编号:
22979
目录名称:
VEP
国际标识:
1994-007B
轨道中心:
EARTH
卫星名称:
VEP
卫星全名:
--
卫星状态:
在轨 (已飞行11594 天)
发射日期:
1994-02-03 UTC
国别 :
日本 (JP)
星等 :
--
轨道信息
数据来源 国际轨道数据 AOE轨道数据
星历时间 2025-10-31T16:19:14+0800
18小时前
查看轨道信息
2025-10-30T23:00:00+0800
1天前
查看轨道信息
半长轴 24532.768km 24532.356km
偏心率 0.724469 0.7244258
轨道倾角 28.706° 28.709°
近地点辐角 167.626° 167.219°
升交点赤经 98.087° 98.338°
平近点角 231.552° 4.563°
近地点 381.403km 382.349km
远地点 35927.863km 35926.093km
周期 637.352分钟 637.336分钟
每日圈数 2.259347 2.259404
详细信息
使用方式:
暂无
2D轨道图
3D轨道图
轨道高度分析图
轨道倾角分析图
轨道综合分析图
查看轨道综合分析图